Home > Weather > Brussels > Past weeks

Flag for Belgium Weather for the Past 2 Weeks in Brussels, Belgium

Now
41 °F

Clear.


Feels Like: 41 °F
Forecast: 41 / 64 °F
Wind: 2 mph from North

Location: Brussels National Airport

Current Time: May 4, 2016 at 2:06:45 AM

Latest Report: May 4, 2016 at 12:50 AM


Visibility: 10 mi

Pressure: 30.39 "Hg

Humidity: 87%

Dew Point: 37 °F

Location of BrusselsLocation

Historic Weather in Brussels — Graph

°F

Brussels Temperature Yesterday

Maximum temperature yesterday: 57 °F (at 4:50 PM)
Minimum temperature yesterday: 46 °F (at 6:50 AM)
Average temperature yesterday: 52 °F

High & Low Weather Summary for the Past Weeks

 TemperatureHumidityPressure
High68 °F (Apr 21, 4:50 PM)100% (Apr 20, 5:50 AM)30.48 "Hg (Apr 20, 5:50 AM)
Low32 °F (Apr 28, 2:20 AM)24% (May 2, 4:50 PM)29.59 "Hg (Apr 26, 5:50 AM)
Average46 °F72%30.07 "Hg
* Reported Apr 19 12:20 AM — May 4 12:50 AM, Brussels, Weather by CustomWeather, © 2016

Note: Actual official high and low records may vary slightly from our data, if they occured in-between our weather recording intervals... More about our weather records

Advertising

Brussels Weather History for the Previous 24 Hours

Scroll right to see more
 ConditionsComfort  
Time TempWeatherWind HumidityBarometerVisibility
12:50 AM
Wed, May 4
41 °FClear.2 mph87%30.39 "Hg10 mi
12:20 AM45 °FClear.No wind71%30.36 "Hg10 mi
11:50 PM
Tue, May 3
46 °FClear.1 mph66%30.36 "Hg10 mi
10:20 PM48 °FClear.2 mph62%30.36 "Hg10 mi
9:50 PM48 °FSunny.3 mph62%30.36 "Hg10 mi
9:20 PM50 °FSunny.3 mph58%30.33 "Hg10 mi
8:50 PM50 °FPassing clouds.5 mph58%30.33 "HgN/A
8:20 PM52 °FPassing clouds.9 mph50%30.33 "HgN/A
7:50 PM54 °FPassing clouds.12 mph51%30.33 "HgN/A
7:20 PM54 °FSunny.13 mph51%30.33 "Hg10 mi
6:50 PM55 °FPassing clouds.13 mph47%30.30 "HgN/A
6:20 PM55 °FPassing clouds.9 mph44%30.30 "HgN/A
5:50 PM57 °FPassing clouds.10 mph41%30.30 "HgN/A
5:20 PM57 °FPassing clouds.8 mph41%30.30 "HgN/A
4:50 PM57 °FPassing clouds.9 mph44%30.30 "HgN/A
4:20 PM55 °FPassing clouds.9 mph44%30.30 "HgN/A
3:50 PM55 °FPassing clouds.10 mph44%30.30 "HgN/A
3:20 PM55 °FPassing clouds.12 mph44%30.30 "HgN/A
2:50 PM55 °FPassing clouds.14 mph47%30.30 "HgN/A
2:20 PM55 °FPassing clouds.10 mph47%30.27 "HgN/A
1:20 PM55 °FPassing clouds.13 mph51%30.27 "HgN/A
12:50 PM55 °FPassing clouds.13 mph51%30.27 "HgN/A
11:50 AM52 °FPassing clouds.10 mph58%30.24 "HgN/A
11:20 AM52 °FPassing clouds.12 mph62%30.24 "HgN/A
10:50 AM52 °FPassing clouds.13 mph67%30.24 "HgN/A
10:20 AM52 °FScattered clouds.10 mph67%30.24 "HgN/A
9:50 AM50 °FScattered clouds.10 mph76%30.21 "HgN/A
9:20 AM50 °FScattered clouds.10 mph76%30.21 "HgN/A
8:50 AM48 °FScattered clouds.9 mph82%30.21 "HgN/A
8:20 AM48 °FScattered clouds.9 mph82%30.18 "HgN/A
7:50 AM46 °FPassing clouds.9 mph87%30.18 "HgN/A
7:20 AM46 °FPassing clouds.8 mph93%30.15 "HgN/A
6:50 AM46 °FPassing clouds.9 mph87%30.15 "HgN/A
6:20 AM48 °FPartly cloudy.10 mph87%30.15 "HgN/A
5:50 AM48 °FPartly cloudy.9 mph87%30.12 "HgN/A
4:50 AM48 °FPartly cloudy.8 mph94%30.12 "HgN/A
4:20 AM48 °FPartly cloudy.7 mph94%30.12 "HgN/A
3:20 AM50 °FPassing clouds.13 mph88%30.09 "HgN/A
2:50 AM52 °FRain. Partly cloudy.15 mph94%30.09 "Hg4 mi
2:20 AM54 °FRain. Partly cloudy.10 mph88%30.09 "Hg3 mi
Weather by CustomWeather, © 2016

See weather overviewHow to use our weather pages